Meteo orario Aavasaksa

Oggi, 19 Giugno, Sabato

Tempo Temperatura Precipitazioni Vento Pressione Umidità
00:00 +10°C° 0 mm 3 m/s 750 mm Hg 88%
01:00 +9°C° 0 mm 3 m/s 751 mm Hg 88%
02:00 +9°C° 0 mm 2 m/s 752 mm Hg 88%
03:00 +9°C° 0 mm 2 m/s 753 mm Hg 83%
04:00 +10°C° 0 mm 2 m/s 753 mm Hg 78%
05:00 +10°C° 0 mm 2 m/s 754 mm Hg 72%
06:00 +13°C° 0 mm 2 m/s 754 mm Hg 64%
07:00 +14°C° 0 mm 2 m/s 755 mm Hg 55%
08:00 +15°C° 0 mm 2 m/s 755 mm Hg 47%
09:00 +16°C° 0 mm 2 m/s 755 mm Hg 44%
10:00 +17°C° 0 mm 2 m/s 755 mm Hg 41%
11:00 +18°C° 0 mm 2 m/s 755 mm Hg 38%
12:00 +19°C° 0 mm 2 m/s 755 mm Hg 38%
13:00 +19°C° 0 mm 3 m/s 755 mm Hg 37%
14:00 +20°C° 0 mm 3 m/s 754 mm Hg 36%
15:00 +19°C° 0 mm 3 m/s 754 mm Hg 38%
16:00 +19°C° 0 mm 3 m/s 754 mm Hg 40%
17:00 +19°C° 0 mm 3 m/s 754 mm Hg 42%
18:00 +17°C° 0.1 mm 3 m/s 754 mm Hg 52%
19:00 +14°C° 0.1 mm 3 m/s 754 mm Hg 63%
20:00 +12°C° 0.1 mm 3 m/s 754 mm Hg 74%
21:00 +12°C° 0.1 mm 2 m/s 754 mm Hg 80%
22:00 +11°C° 0.1 mm 1 m/s 754 mm Hg 85%
23:00 +9°C° 0.1 mm 0 m/s 753 mm Hg 91%

Domani, 20 Giugno, Domenica

Tempo Temperatura Precipitazioni Vento Pressione Umidità
00:00 +9°C° 0.1 mm 0 m/s 753 mm Hg 92%
01:00 +9°C° 0.1 mm 0 m/s 753 mm Hg 93%
02:00 +9°C° 0.1 mm 0 m/s 752 mm Hg 94%
03:00 +10°C° 0.2 mm 1 m/s 752 mm Hg 95%
04:00 +10°C° 0.2 mm 1 m/s 751 mm Hg 95%
05:00 +10°C° 0.2 mm 1 m/s 751 mm Hg 96%
06:00 +10°C° 0.4 mm 1 m/s 751 mm Hg 96%
07:00 +9°C° 0.4 mm 2 m/s 751 mm Hg 97%
08:00 +9°C° 0.4 mm 2 m/s 751 mm Hg 97%
09:00 +9°C° 0.5 mm 2 m/s 751 mm Hg 96%
10:00 +9°C° 0.5 mm 2 m/s 751 mm Hg 96%
11:00 +10°C° 0.5 mm 2 m/s 751 mm Hg 95%
12:00 +10°C° 0.2 mm 2 m/s 751 mm Hg 93%
13:00 +12°C° 0.2 mm 2 m/s 751 mm Hg 91%
14:00 +12°C° 0.2 mm 2 m/s 751 mm Hg 88%
15:00 +13°C° 0 mm 2 m/s 752 mm Hg 80%
16:00 +14°C° 0 mm 3 m/s 752 mm Hg 72%
17:00 +16°C° 0 mm 3 m/s 752 mm Hg 64%
18:00 +16°C° 0 mm 2 m/s 752 mm Hg 66%
19:00 +16°C° 0 mm 2 m/s 753 mm Hg 67%
20:00 +15°C° 0 mm 2 m/s 753 mm Hg 69%
21:00 +14°C° 0 mm 1 m/s 754 mm Hg 75%
22:00 +13°C° 0 mm 1 m/s 754 mm Hg 81%
23:00 +11°C° 0 mm 1 m/s 755 mm Hg 87%

Dopodomani, 21 Giugno, Lunedi

Tempo Temperatura Precipitazioni Vento Pressione Umidità
00:00 +11°C° 0 mm 1 m/s 755 mm Hg 89%
01:00 +10°C° 0 mm 1 m/s 755 mm Hg 91%
02:00 +10°C° 0 mm 1 m/s 755 mm Hg 93%
03:00 +10°C° 0 mm 1 m/s 755 mm Hg 91%
04:00 +11°C° 0 mm 1 m/s 756 mm Hg 88%
05:00 +12°C° 0 mm 2 m/s 756 mm Hg 86%
06:00 +13°C° 0 mm 2 m/s 756 mm Hg 80%
07:00 +14°C° 0 mm 2 m/s 756 mm Hg 74%
08:00 +14°C° 0 mm 3 m/s 756 mm Hg 68%
09:00 +16°C° 0 mm 3 m/s 756 mm Hg 66%
10:00 +16°C° 0 mm 3 m/s 755 mm Hg 63%
11:00 +17°C° 0 mm 3 m/s 755 mm Hg 60%
12:00 +17°C° 0 mm 3 m/s 755 mm Hg 63%
13:00 +17°C° 0 mm 3 m/s 755 mm Hg 66%
14:00 +16°C° 0 mm 3 m/s 754 mm Hg 69%
15:00 +16°C° 0.5 mm 2 m/s 754 mm Hg 75%
16:00 +15°C° 0.5 mm 1 m/s 754 mm Hg 82%
17:00 +14°C° 0.5 mm 1 m/s 753 mm Hg 88%
18:00 +14°C° 0.9 mm 1 m/s 753 mm Hg 91%
19:00 +14°C° 0.9 mm 1 m/s 752 mm Hg 93%
20:00 +14°C° 0.9 mm 2 m/s 752 mm Hg 96%
21:00 +14°C° 1.2 mm 1 m/s 752 mm Hg 97%
22:00 +13°C° 1.2 mm 1 m/s 752 mm Hg 97%
23:00 +13°C° 1.2 mm 1 m/s 751 mm Hg 98%

22 Giugno, Martedi

Tempo Temperatura Precipitazioni Vento Pressione Umidità
00:00 +12°C° 0.3 mm 0 m/s 751 mm Hg 98%
01:00 +12°C° 0.3 mm 0 m/s 751 mm Hg 98%
02:00 +12°C° 0.3 mm 0 m/s 751 mm Hg 98%
03:00 +12°C° 0.1 mm 0 m/s 751 mm Hg 98%
04:00 +13°C° 0.1 mm 0 m/s 751 mm Hg 97%
05:00 +13°C° 0.1 mm 0 m/s 752 mm Hg 97%
06:00 +14°C° 0.3 mm 1 m/s 752 mm Hg 97%
07:00 +14°C° 0.3 mm 1 m/s 752 mm Hg 96%
08:00 +14°C° 0.3 mm 1 m/s 752 mm Hg 96%
09:00 +14°C° 0.2 mm 1 m/s 753 mm Hg 96%
10:00 +14°C° 0.2 mm 2 m/s 753 mm Hg 96%
11:00 +13°C° 0.2 mm 2 m/s 754 mm Hg 96%
12:00 +13°C° 0 mm 3 m/s 754 mm Hg 92%
13:00 +14°C° 0 mm 3 m/s 754 mm Hg 88%
14:00 +15°C° 0 mm 4 m/s 754 mm Hg 84%
15:00 +15°C° 0 mm 4 m/s 754 mm Hg 81%
16:00 +16°C° 0 mm 5 m/s 755 mm Hg 78%
17:00 +16°C° 0 mm 5 m/s 755 mm Hg 74%
18:00 +15°C° 0 mm 5 m/s 755 mm Hg 75%
19:00 +14°C° 0 mm 5 m/s 755 mm Hg 76%
20:00 +13°C° 0 mm 5 m/s 755 mm Hg 77%
21:00 +12°C° 0 mm 5 m/s 755 mm Hg 78%
22:00 +12°C° 0 mm 5 m/s 755 mm Hg 78%
23:00 +10°C° 0 mm 5 m/s 755 mm Hg 79%

23 Giugno, Mercoledi

Tempo Temperatura Precipitazioni Vento Pressione Umidità
00:00 +9°C° 0.2 mm 5 m/s 755 mm Hg 80%
01:00 +9°C° 0.2 mm 5 m/s 754 mm Hg 81%
02:00 +8°C° 0.2 mm 5 m/s 754 mm Hg 83%
03:00 +8°C° 0.7 mm 5 m/s 754 mm Hg 86%
04:00 +7°C° 0.7 mm 4 m/s 754 mm Hg 90%
05:00 +7°C° 0.7 mm 4 m/s 753 mm Hg 93%
06:00 +7°C° 1.6 mm 4 m/s 754 mm Hg 94%
07:00 +7°C° 1.6 mm 4 m/s 754 mm Hg 95%
08:00 +7°C° 1.6 mm 4 m/s 754 mm Hg 96%
09:00 +7°C° 0 mm 4 m/s 754 mm Hg 93%
10:00 +8°C° 0 mm 4 m/s 754 mm Hg 91%
11:00 +8°C° 0 mm 4 m/s 755 mm Hg 88%
12:00 +10°C° 0 mm 4 m/s 755 mm Hg 84%
13:00 +11°C° 0 mm 4 m/s 756 mm Hg 79%
14:00 +12°C° 0 mm 4 m/s 756 mm Hg 74%
15:00 +12°C° 0 mm 4 m/s 756 mm Hg 71%
16:00 +13°C° 0 mm 4 m/s 757 mm Hg 69%
17:00 +13°C° 0 mm 4 m/s 757 mm Hg 66%
18:00 +13°C° 0 mm 4 m/s 757 mm Hg 68%
19:00 +12°C° 0 mm 3 m/s 758 mm Hg 70%
20:00 +12°C° 0 mm 3 m/s 758 mm Hg 72%
21:00 +11°C° 0 mm 3 m/s 758 mm Hg 77%
22:00 +9°C° 0 mm 2 m/s 759 mm Hg 81%
23:00 +8°C° 0 mm 2 m/s 759 mm Hg 86%

24 Giugno, Giovedi

Tempo Temperatura Precipitazioni Vento Pressione Umidità
00:00 +7°C° 0 mm 2 m/s 759 mm Hg 89%
01:00 +6°C° 0 mm 2 m/s 759 mm Hg 92%
02:00 +5°C° 0 mm 2 m/s 759 mm Hg 95%
03:00 +6°C° 0 mm 2 m/s 759 mm Hg 91%
04:00 +8°C° 0 mm 1 m/s 760 mm Hg 86%
05:00 +9°C° 0 mm 1 m/s 760 mm Hg 81%
06:00 +10°C° 0 mm 1 m/s 760 mm Hg 74%
07:00 +12°C° 0 mm 1 m/s 760 mm Hg 67%
08:00 +14°C° 0 mm 1 m/s 760 mm Hg 60%
09:00 +15°C° 0 mm 1 m/s 759 mm Hg 54%
10:00 +18°C° 0 mm 1 m/s 759 mm Hg 48%
11:00 +20°C° 0 mm 1 m/s 758 mm Hg 42%
12:00 +21°C° 0 mm 1 m/s 758 mm Hg 40%
13:00 +20°C° 0 mm 0 m/s 758 mm Hg 37%
14:00 +21°C° 0 mm 0 m/s 758 mm Hg 35%
15:00 +23°C° 0 mm 1 m/s 757 mm Hg 35%
16:00 +23°C° 0 mm 1 m/s 757 mm Hg 35%
17:00 +23°C° 0 mm 1 m/s 757 mm Hg 35%
18:00 +22°C° 0 mm 1 m/s 757 mm Hg 43%
19:00 +20°C° 0 mm 2 m/s 757 mm Hg 50%
20:00 +19°C° 0 mm 2 m/s 757 mm Hg 58%
21:00 +18°C° 0 mm 1 m/s 756 mm Hg 64%
22:00 +15°C° 0 mm 1 m/s 756 mm Hg 70%
23:00 +13°C° 0 mm 1 m/s 756 mm Hg 77%
Mostrare altro

Abbiamo bisogno del tuo consenso

Meteoprog e i nostri fornitori di servizi possono memorizzare e accedere a dati personali come cookie, identificatori di dispositivi o altre tecnologie simili sul tuo dispositivo e possono elaborare tali dati per personalizzare i contenuti e gli annunci, nonché fornire funzionalità dei social media e analizzarne il traffico.

  • Archiviare e/o accedere alle informazioni sul tuo dispositivo

    Cookie, identificatori di dispositivi o altre informazioni possono essere memorizzati o resi accessibili sul tuo dispositivo per le finalità sopra indicate.

  • Annunci e contenuti personalizzati, misurazione di annunci e contenuti, approfondimenti sul pubblico e sviluppo di prodotti

    Gli annunci e i contenuti possono essere personalizzati in base a un profilo. È possibile aggiungere più dati per personalizzare meglio annunci e contenuti. È possibile misurare il rendimento degli annunci e dei contenuti. È possibile ricavare informazioni sul pubblico che ha visto gli annunci e i contenuti. Tali dati possono essere utilizzati per sviluppare o migliorare l'esperienza, i sistemi e il software dell'utente.

Cliccando su “Accetto”, acconsenti all'uso di cookie, identificatori di dispositivo, web beacon o altre tecnologie simili. Puoi modificare le impostazioni nel browser del tuo dispositivo.

Per determinati scopi, è possibile fare affidamento su interessi legali, piuttosto che sul consenso. Puoi approfondire questo argomento consultando la nostra Informativa sulla privacy e sui cookie.